Regional Weather Roundup
Issued by NWS Charleston, SC

Current Version | Previous Version | Graphics & Text | Print | Product List | Glossary Off
Versions: 1 2 3 4 5 6 7 8 9 10 11 12 13 14 15 16 17 18 19 20 21 22 23 24 25 26 27 28 29 30 31 32 33 34 35 36 37 38 39 40 41 42 43 44 45 46 47 48 49 50

000
ASUS42 KCHS 300328
RWRCHS

REGIONAL WEATHER ROUNDUP
NATIONAL WEATHER SERVICE CHARLESTON SC
1100 PM EDT FRI APR 29 2016

NOTE: "FAIR" INDICATES FEW OR NO CLOUDS BELOW 12,000 FEET WITH NO
SIGNIFICANT WEATHER AND/OR OBSTRUCTIONS TO VISIBILITY.

NOT ALL STATIONS ARE QUALITY CONTROLLED. USE DATA WITH CAUTION...
ESPECIALLY DEWPOINT OBSERVATIONS.

SCZ027-030-031-034>040-042>050-300400-
...SOUTHEAST SOUTH CAROLINA...

CITY           SKY/WX    TMP DP  RH WIND       PRES   REMARKS
N CHARLESTON   PTCLDY    70  67  90 SE5       29.99S
WATERFRONT PRK   N/A     71  70  96 SE5       29.98R
MOUNT PLEASANT FAIR      66  66 100 CALM      29.99F FOG
JOHNS ISLAND   FAIR      70  70 100 SE3       29.99F FOG
PINOPOLIS        N/A     72  68  88 VRB3      29.92S
MONCKS CORNER  FAIR      66  63  88 S3        29.98F FOG
SUMMERVILLE    FAIR      68  68 100 CALM      30.00S
BEAUFORT MCAS  CLEAR     73  69  87 SE3       29.98F
BEAUFORT ARPT  FAIR      70  68  94 SE3       29.98S FOG
HILTON HEAD IS CLEAR     72  70  94 SE3       30.00S
WALTERBORO     CLEAR     70  70 100 SE3       30.00S
ALLENDALE      FAIR      72  64  78 SE5       29.98S

...SOUTHERN MIDLANDS AND PEE DEE...

CITY           SKY/WX    TMP DP  RH WIND       PRES   REMARKS
GEORGETOWN     FAIR      64  64 100 CALM      30.01S
KINGSTREE      FAIR      68  64  88 SE5       29.99S
ORANGEBURG     CLOUDY    73  61  65 S6        29.99R
BARNWELL       FAIR      75  66  73 SE7       29.98F
AIKEN          FAIR      70  55  60 CALM      30.00S
MANNING        NOT AVBL
COLUMBIA       CLOUDY    75  59  57 CALM      29.96R
SUMTER         MOCLDY    73  64  71 S7        29.96R
FLORENCE       CLOUDY    70  65  84 S7        29.98S
MYRTLE BEACH   CLEAR     70  61  73 SE8       30.02S
N MYRTLE BEACH CLEAR     68  64  87 S6        30.00S

$$

GAZ063-065-086>088-099>101-113>116-118-119-134>141-150-300400-
...SOUTHEAST GEORGIA...

CITY           SKY/WX    TMP DP  RH WIND       PRES   REMARKS
SAVANNAH ARPT  PTCLDY    73  64  73 E7        29.98S
HUNTER AAF     CLEAR     72  70  95 SE6       29.96S
FORT STEWART   CLEAR     71  64  77 CALM      29.96R
STATESBORO     CLEAR     73  64  73 CALM      29.97F
SYLVANIA       PTCLDY    72  64  74 CALM      29.99S
CLAXTON        FAIR      69  65  86 CALM      29.97F

...CSRA...CENTRAL AND FAR SOUTHEAST GEORGIA...

CITY           SKY/WX    TMP DP  RH WIND       PRES   REMARKS
THOMSON        CLOUDY    68  66  96 CALM      30.01S
AUGUSTA-BUSH   CLOUDY    68  62  81 CALM      29.95S
AUGUSTA-DANIEL CLOUDY    78  57  48 E3        29.97S
SWAINSBORO     FAIR      70  64  83 CALM      29.97S
VIDALIA        CLOUDY    73  63  68 SE5       29.97S
EASTMAN        FAIR     N/A N/A N/A CALM      29.99S
HAZLEHURST     FAIR      72  64  75 CALM      29.95S
ALMA           CLEAR     73  65  75 SE5       29.96R
WAYCROSS       CLEAR     75  68  78 S7        29.97S
JESUP          FAIR      72  68  88 CALM      29.98S
BAXLEY         FAIR      73  64  73 SE3       29.96F
BRUNSWICK      CLEAR     79  73  83 CALM      29.99S
SAINT SIMONS   CLEAR     74  72  93 S5        29.98R

$$

SCZ027-028-034-036>038-045-046-048>050-GAZ119-141-300400-
...LAKE AND SUPPLEMENTAL COASTAL OBSERVATIONS...

STATION/POSITION TIME  TEMP    WIND        PRES    WAVE   SWELL
                       AIR SEA DIR/SP/G            HT/PER HT/PER/DIR
                 (UTC) (F)     (DEG/KT/KT) (MB)    (FT/S) (FT/S/D)
WINYAH BAY       0200   70     150/  3     1015.0
LAKE MURRAY      0200   74        CALM     1014.2R
ACE BASIN NERRS  0200   71        CALM     1016.0
FORT PULASKI     0300   72 72                N/A
SAPELO ISLAND    0300   72        CALM     1015.0S

$$

ANZ835-935-AMZ111-154-330-350-352-354-370-450-454-472-300400-
...C-MAN AND BUOY OBSERVATIONS...

STATION/POSITION TIME  TEMP    WIND        PRES    WAVE   SWELL
                       AIR SEA DIR/SP/G            HT/PER HT/PER/DIR
                 (UTC) (F)     (DEG/KT/KT) (MB)    (FT/S) (FT/S/D)
BUOY 41004       0250   73 72  120/  6/  8 1015.5R   2/ 4   2/ 9
BUOY 41008       NOT AVBL
FOLLY BEACH CMAN 0300   71     120/  5/  5 1016.0R
CAPERS NEARSHORE 0208   70 71   80/  4/  6 1015.7R
FRIPP NEARSHORE  0208   72 73  140/  8/ 10 1015.1R


STATION/POSITION TIME  TEMP    WIND        PRES    WAVE   SWELL
                       AIR SEA DIR/SP/G            HT/PER HT/PER/DIR
                 (UTC) (F)     (DEG/KT/KT) (MB)    (FT/S) (FT/S/D)
5E ST. MARYS GA  0221      73                N/A     1/ 9
FRYING PAN BUOY  0300   70 70   70/  8/ 10 1016.0R
BUOY 41025       0250   58 75   10/ 17/ 21 1016.4R   4/ 5   2/ 40/ 8
CAPE LOOKOUT NC  0300   66      60/ 10/ 11 1015.6F
BUOY 41002       0250   71 71  260/  4/  6 1015.3S   3/ 6   3/270/ 6
BUOY 41010       0220   76 77  190/  6/  6 1015.9R
ST AUGUSTINE FL  0300   73 73  180/  6/  6 1016.3R


$$




USA.gov is the U.S. government's official web portal to all federal, state and local government web resources and services.